Flag for U.S.A. Weather past 2 weeks in Kalamazoo, Michigan, U.S.A.

Now
48 °F

Overcast.


Feels Like: 44 °F
Forecast: 43 / 52 °F
Wind: 9 mph from North

Location: Kalamazoo / Battle Creek International Airport

Current Time: Oct 21, 2014 at 2:02:55 AM

Latest Report: Oct 21, 2014 at 12:53 AM


Visibility: 10 mi

Pressure: 29.95 "Hg

Humidity: 80%

Dew point: 42 °F

Location of KalamazooLocation

Historic Weather in Kalamazoo — Graph

°F

Kalamazoo temperature yesterday

Maximum temperature yesterday: 59 °F (at 3:53 PM)
Minimum temperature yesterday: 46 °F (at 7:53 AM)
Average temperature yesterday: 51 °F

Past Weeks' High & Low Weather Summary

 TemperatureHumidityPressure
High72 °F (Oct 13, 4:53 PM)97% (Oct 10, 8:53 AM)30.28 "Hg (Oct 10, 8:53 AM)
Low29 °F (Oct 19, 7:53 AM)29% (Oct 12, 4:53 PM)29.54 "Hg (Oct 14, 3:53 PM)
Average52 °F76%29.90 "Hg
* Reported Oct 6 12:53 AM — Oct 21 12:53 AM, Kalamazoo, Weather by CustomWeather, © 2014

Note: Actual official high and low records may vary slightly from our data, if they occured in-between our weather recording intervals... More about our weather records

Advertising

Kalamazoo weather history for previous 24 hours

 ConditionsComfort  
Time TempWeatherWind HumidityBarometerVisibility
12:53 AM
Oct 21
48 °FOvercast.9 mph80%29.95 "Hg10 mi
11:53 PM
Oct 20
48 °FOvercast.10 mph77%29.96 "Hg10 mi
10:53 PM50 °FOvercast.10 mph71%29.95 "Hg10 mi
9:53 PM51 °FOvercast.14 mph74%29.94 "Hg10 mi
8:53 PM52 °FOvercast.16 mph77%29.93 "Hg10 mi
7:53 PM53 °FMostly cloudy.10 mph77%29.90 "Hg10 mi
6:53 PM55 °FMore clouds than sun.9 mph74%29.88 "Hg10 mi
5:53 PM56 °FMore clouds than sun.8 mph75%29.85 "Hg10 mi
4:53 PM59 °FBroken clouds.12 mph67%29.83 "Hg10 mi
3:53 PM59 °FPartly sunny.7 mph69%29.81 "Hg10 mi
2:53 PM57 °FMostly cloudy.6 mph74%29.81 "Hg10 mi
1:53 PM54 °FOvercast.8 mph80%29.83 "Hg10 mi
12:53 PM53 °FOvercast.7 mph83%29.83 "Hg10 mi
11:53 AM51 °FLight rain. Mostly cloudy.10 mph83%29.84 "Hg8 mi
10:53 AM51 °FPartly sunny.6 mph80%29.84 "Hg10 mi
9:53 AM51 °FPassing clouds.12 mph83%29.84 "Hg10 mi
8:53 AM48 °FPassing clouds.10 mph86%29.85 "Hg8 mi
7:53 AM46 °FPassing clouds.8 mph89%29.83 "Hg9 mi
6:53 AM47 °FPassing clouds.9 mph86%29.84 "Hg10 mi
5:53 AM48 °FOvercast.10 mph86%29.85 "Hg10 mi
4:53 AM48 °FOvercast.12 mph86%29.85 "Hg10 mi
3:53 AM48 °FOvercast.13 mph86%29.88 "Hg10 mi
2:53 AM48 °FOvercast.9 mph86%29.90 "Hg10 mi
Weather by CustomWeather, © 2014

See weather overviewHow to use our weather pages